Tracking 29892 objects as of 21-Nov-2024
HD Live streaming from Space Station
objects crossing your sky now

CZ-6A DEB

Track CZ-6A DEB now!
10-day predictions


NORAD ID: 54296
Int'l Code: 2022-151AP
Perigee: 777.0 km
Apogee: 819.9 km
Inclination: 98.8 °
Period: 100.7 minutes
Semi major axis: 7169 km
RCS: Unknown
Launch date: November 11, 2022
Source: People's Republic of China (PRC)
Launch site: Taiyaun Space Center, China (TSC)

Note: This is SATELLITE DEBRIS
Your satellite tracking list
Your tracking list is empty




NASA's NSSDC Master Catalog

Two Line Element Set (TLE):
1 54296U 22151AP  24325.30825021  .00002969  00000-0  11599-2 0  9997
2 54296  98.8331 350.1600 0029915 270.3038  89.4716 14.30120521104913
Source of the keplerian elements: AFSPC